| time (UTC) | temp F | wind direction | speed MPH | gust MPH | rain 1hr in | rain 24hr in | rain mn in | humidity % | barometer mb |
| 20260902031435 | 80 | 137 | 0.0 | 1.0 | 0.00 | 0.00 | 0.00 | 88 | 1018.4 |
| 20260902030933 | 80 | 137 | 0.0 | 1.0 | 0.00 | 0.00 | 0.00 | 88 | 1018.5 |
| 20260902030433 | 80 | 137 | 0.0 | 0.0 | 0.00 | 0.00 | 0.00 | 88 | 1018.5 |
| 20260902025932 | 80 | 137 | 0.0 | 1.0 | 0.00 | 0.00 | 0.00 | 88 | 1018.5 |
| 20260902024930 | 80 | 137 | 0.0 | 2.0 | 0.00 | 0.00 | 0.00 | 87 | 1018.5 |
| 20260902024430 | 80 | 137 | 0.0 | 1.0 | 0.00 | 0.00 | 0.00 | 87 | 1018.6 |
| 20260902023428 | 81 | 137 | 0.0 | 1.0 | 0.00 | 0.00 | 0.00 | 86 | 1018.5 |
| 20260902022425 | 81 | 137 | 0.0 | 2.0 | 0.00 | 0.00 | 0.00 | 86 | 1018.6 |
| 20260902021915 | 81 | 137 | 0.0 | 2.0 | 0.00 | 0.00 | 0.00 | 86 | 1018.4 |
| 20260902020917 | 81 | 135 | 0.0 | 2.0 | 0.00 | 0.00 | 0.00 | 86 | 1018.4 |
| 20260902020404 | 81 | 135 | 0.0 | 2.0 | 0.00 | 0.00 | 0.00 | 85 | 1018.4 |
| 20260902015905 | 81 | 135 | 0.0 | 2.0 | 0.00 | 0.00 | 0.00 | 85 | 1018.3 |
| 20260902015404 | 81 | 135 | 0.0 | 2.0 | 0.00 | 0.00 | 0.00 | 85 | 1018.3 |
| 20260902014905 | 81 | 135 | 0.0 | 1.0 | 0.00 | 0.00 | 0.00 | 85 | 1018.2 |
| 20260902014404 | 81 | 135 | 0.0 | 2.0 | 0.00 | 0.00 | 0.00 | 85 | 1018.2 |
| 20260902013411 | 82 | 135 | 0.0 | 1.0 | 0.00 | 0.00 | 0.00 | 85 | 1018.1 |
| 20260902012908 | 82 | 135 | 0.0 | 0.0 | 0.00 | 0.00 | 0.00 | 85 | 1018.0 |
| 20260902011903 | 82 | 135 | 0.0 | 0.0 | 0.00 | 0.00 | 0.00 | 85 | 1017.7 |
| 20260902011401 | 83 | 135 | 0.0 | 0.0 | 0.00 | 0.00 | 0.00 | 85 | 1017.7 |
| 20260902010401 | 83 | 135 | 0.0 | 0.0 | 0.00 | 0.00 | 0.00 | 84 | 1017.7 |
| 20260902005902 | 83 | 135 | 0.0 | 0.0 | 0.00 | 0.00 | 0.00 | 84 | 1017.6 |
| 20260902005402 | 83 | 135 | 0.0 | 0.0 | 0.00 | 0.00 | 0.00 | 83 | 1017.5 |
| 20260902004403 | 83 | 135 | 0.0 | 0.0 | 0.00 | 0.00 | 0.00 | 83 | 1017.4 |
| 20260902003909 | 84 | 135 | 0.0 | 0.0 | 0.00 | 0.00 | 0.00 | 82 | 1017.4 |
| 20260902003407 | 84 | 135 | 0.0 | 0.0 | 0.00 | 0.00 | 0.00 | 82 | 1017.4 |
| 20260902002905 | 84 | 135 | 0.0 | 0.0 | 0.00 | 0.00 | 0.00 | 82 | 1017.3 |
| 20260902002403 | 84 | 135 | 0.0 | 0.0 | 0.00 | 0.00 | 0.00 | 81 | 1017.4 |
| 20260902001902 | 85 | 135 | 0.0 | 1.0 | 0.00 | 0.00 | 0.00 | 81 | 1017.4 |
| 20260902001402 | 85 | 135 | 0.0 | 2.0 | 0.00 | 0.00 | 0.00 | 80 | 1017.4 |
| 20260902000900 | 85 | 135 | 0.0 | 2.0 | 0.00 | 0.00 | 0.00 | 80 | 1017.4 |
| 20260902000402 | 85 | 135 | 0.0 | 0.0 | 0.00 | 0.00 | 0.00 | 79 | 1017.3 |
| 20260901235901 | 85 | 135 | 0.0 | 2.0 | 0.00 | 0.00 | 0.00 | 79 | 1017.3 |
| 20260901235400 | 86 | 135 | 0.0 | 2.0 | 0.00 | 0.00 | 0.00 | 79 | 1017.3 |
| 20260901234901 | 86 | 135 | 1.0 | 4.0 | 0.00 | 0.00 | 0.00 | 78 | 1017.3 |
| 20260901234401 | 86 | 135 | 1.0 | 4.0 | 0.00 | 0.00 | 0.00 | 77 | 1017.2 |
| 20260901233902 | 87 | 135 | 1.0 | 3.0 | 0.00 | 0.00 | 0.00 | 77 | 1017.2 |
| 20260901233400 | 87 | 135 | 1.0 | 2.0 | 0.00 | 0.00 | 0.00 | 77 | 1017.2 |
| 20260901232900 | 87 | 135 | 1.0 | 6.0 | 0.00 | 0.00 | 0.00 | 77 | 1017.2 |
| 20260901232400 | 87 | 135 | 2.0 | 6.0 | 0.00 | 0.00 | 0.00 | 76 | 1017.2 |
| 20260901231901 | 88 | 154 | 1.0 | 5.0 | 0.00 | 0.00 | 0.00 | 76 | 1017.3 |
| 20260901231401 | 88 | 155 | 1.0 | 5.0 | 0.00 | 0.00 | 0.00 | 75 | 1017.3 |
| 20260901230901 | 88 | 156 | 1.0 | 5.0 | 0.00 | 0.00 | 0.00 | 74 | 1017.3 |
| 20260901230358 | 89 | 156 | 1.0 | 5.0 | 0.00 | 0.00 | 0.00 | 73 | 1017.4 |
| 20260901225859 | 89 | 156 | 1.0 | 5.0 | 0.00 | 0.00 | 0.00 | 73 | 1017.4 |
| 20260901225359 | 89 | 156 | 2.0 | 6.0 | 0.00 | 0.00 | 0.00 | 72 | 1017.4 |
| 20260901224855 | 89 | 120 | 2.0 | 6.0 | 0.00 | 0.00 | 0.00 | 71 | 1017.4 |
| 20260901224355 | 89 | 168 | 2.0 | 6.0 | 0.00 | 0.00 | 0.00 | 71 | 1017.3 |
| 20260901223855 | 90 | 156 | 2.0 | 7.0 | 0.00 | 0.00 | 0.00 | 70 | 1017.3 |
| 20260901223354 | 90 | 153 | 2.0 | 7.0 | 0.00 | 0.00 | 0.00 | 70 | 1017.2 |
| 20260901222858 | 90 | 264 | 2.0 | 6.0 | 0.00 | 0.00 | 0.00 | 70 | 1017.2 |
| 20260901222401 | 91 | 143 | 2.0 | 5.0 | 0.00 | 0.00 | 0.00 | 69 | 1017.2 |
| 20260901221904 | 91 | 178 | 1.0 | 5.0 | 0.00 | 0.00 | 0.00 | 69 | 1017.1 |
| 20260901221400 | 91 | 146 | 1.0 | 5.0 | 0.00 | 0.00 | 0.00 | 68 | 1017.0 |
| 20260901215859 | 91 | 144 | 1.0 | 5.0 | 0.00 | 0.00 | 0.00 | 67 | 1016.9 |
| 20260901215359 | 91 | 143 | 2.0 | 5.0 | 0.00 | 0.00 | 0.00 | 69 | 1016.9 |
| 20260901214856 | 91 | 144 | 2.0 | 6.0 | 0.00 | 0.00 | 0.00 | 70 | 1016.9 |
| 20260901214359 | 92 | 100 | 2.0 | 6.0 | 0.00 | 0.00 | 0.00 | 67 | 1017.0 |
| 20260901213905 | 91 | 143 | 1.0 | 5.0 | 0.00 | 0.00 | 0.00 | 67 | 1017.0 |
| 20260901212854 | 91 | 144 | 2.0 | 6.0 | 0.00 | 0.00 | 0.00 | 68 | 1017.1 |
| 20260901211356 | 92 | 171 | 2.0 | 7.0 | 0.00 | 0.00 | 0.00 | 66 | 1017.2 |
| 20260901210852 | 92 | 171 | 2.0 | 7.0 | 0.00 | 0.00 | 0.00 | 64 | 1017.1 |
| 20260901205908 | 90 | 144 | 2.0 | 6.0 | 0.00 | 0.00 | 0.00 | 69 | 1017.2 |
| 20260901205405 | 91 | 121 | 2.0 | 6.0 | 0.00 | 0.00 | 0.00 | 66 | 1017.2 |
| 20260901204850 | 91 | 106 | 2.0 | 5.0 | 0.00 | 0.00 | 0.00 | 67 | 1017.2 |
| 20260901204341 | 91 | 130 | 2.0 | 7.0 | 0.00 | 0.00 | 0.00 | 64 | 1017.2 |
| 20260901203844 | 92 | 129 | 2.0 | 7.0 | 0.00 | 0.00 | 0.00 | 64 | 1017.2 |
| 20260901203402 | 93 | 36 | 1.0 | 5.0 | 0.00 | 0.00 | 0.00 | 59 | 1017.2 |
| 20260901202337 | 92 | 35 | 3.0 | 7.0 | 0.00 | 0.00 | 0.00 | 58 | 1017.2 |
| 20260901201841 | 91 | 35 | 4.0 | 7.0 | 0.00 | 0.00 | 0.00 | 62 | 1017.2 |
| 20260901201342 | 91 | 39 | 4.0 | 10.0 | 0.00 | 0.00 | 0.00 | 59 | 1017.3 |
| 20260901200842 | 92 | 42 | 4.0 | 10.0 | 0.00 | 0.00 | 0.00 | 58 | 1017.3 |
| 20260901200337 | 92 | 23 | 3.0 | 8.0 | 0.00 | 0.00 | 0.00 | 57 | 1017.2 |
| 20260901195838 | 92 | 62 | 2.0 | 6.0 | 0.00 | 0.00 | 0.00 | 60 | 1017.2 |
| 20260901195336 | 92 | 62 | 3.0 | 6.0 | 0.00 | 0.00 | 0.00 | 59 | 1017.2 |
| 20260901194836 | 92 | 63 | 3.0 | 8.0 | 0.00 | 0.00 | 0.00 | 58 | 1017.2 |
| 20260901194334 | 92 | 61 | 3.0 | 8.0 | 0.00 | 0.00 | 0.00 | 57 | 1017.2 |
| 20260901193833 | 92 | 55 | 4.0 | 10.0 | 0.00 | 0.00 | 0.00 | 57 | 1017.3 |
| 20260901192831 | 92 | 346 | 5.0 | 12.0 | 0.00 | 0.00 | 0.00 | 56 | 1017.2 |
| 20260901192331 | 93 | 2 | 6.0 | 13.0 | 0.00 | 0.00 | 0.00 | 56 | 1017.3 |
| 20260901191832 | 93 | 29 | 6.0 | 13.0 | 0.00 | 0.00 | 0.00 | 58 | 1017.3 |
| 20260901190831 | 93 | 73 | 3.0 | 9.0 | 0.00 | 0.00 | 0.00 | 54 | 1017.4 |
| 20260901190332 | 92 | 75 | 4.0 | 10.0 | 0.00 | 0.00 | 0.00 | 55 | 1017.6 |
| 20260901185832 | 92 | 77 | 5.0 | 11.0 | 0.00 | 0.00 | 0.00 | 56 | 1017.7 |
| 20260901185331 | 92 | 56 | 6.0 | 11.0 | 0.00 | 0.00 | 0.00 | 54 | 1017.7 |
| 20260901184836 | 92 | 43 | 5.0 | 11.0 | 0.00 | 0.00 | 0.00 | 56 | 1017.8 |
| 20260901184334 | 92 | 63 | 4.0 | 10.0 | 0.00 | 0.00 | 0.00 | 58 | 1017.9 |
| 20260901183835 | 93 | 356 | 4.0 | 10.0 | 0.00 | 0.00 | 0.00 | 56 | 1018.0 |
| 20260901183337 | 92 | 56 | 4.0 | 10.0 | 0.00 | 0.00 | 0.00 | 57 | 1018.2 |
| 20260901182332 | 92 | 21 | 4.0 | 12.0 | 0.00 | 0.00 | 0.00 | 61 | 1018.2 |
| 20260901181829 | 92 | 346 | 2.0 | 8.0 | 0.00 | 0.00 | 0.00 | 60 | 1018.3 |
| 20260901181328 | 92 | 56 | 4.0 | 11.0 | 0.00 | 0.00 | 0.00 | 59 | 1018.5 |
| 20260901180331 | 91 | 60 | 2.0 | 9.0 | 0.00 | 0.00 | 0.00 | 57 | 1018.5 |
| 20260901175829 | 91 | 60 | 2.0 | 4.0 | 0.00 | 0.00 | 0.00 | 63 | 1018.6 |
| 20260901175329 | 90 | 46 | 3.0 | 5.0 | 0.00 | 0.00 | 0.00 | 68 | 1018.7 |
| 20260901174829 | 89 | 44 | 4.0 | 9.0 | 0.00 | 0.00 | 0.00 | 64 | 1018.8 |
| 20260901174331 | 90 | 44 | 3.0 | 9.0 | 0.00 | 0.00 | 0.00 | 62 | 1018.9 |
| 20260901173835 | 91 | 46 | 2.0 | 6.0 | 0.00 | 0.00 | 0.00 | 63 | 1018.9 |
| 20260901172321 | 90 | 17 | 4.0 | 6.0 | 0.00 | 0.00 | 0.00 | 63 | 1019.0 |
| 20260901171821 | 90 | 346 | 3.0 | 8.0 | 0.00 | 0.00 | 0.00 | 63 | 1019.0 |
| 20260901171321 | 91 | 63 | 3.0 | 8.0 | 0.00 | 0.00 | 0.00 | 67 | 1019.0 |
| 20260901170322 | 90 | 106 | 4.0 | 10.0 | 0.00 | 0.00 | 0.00 | 64 | 1019.2 |
| 20260901165330 | 88 | 55 | 3.0 | 8.0 | 0.00 | 0.00 | 0.00 | 68 | 1019.3 |
| 20260901164825 | 88 | 68 | 3.0 | 7.0 | 0.00 | 0.00 | 0.00 | 66 | 1019.3 |
| 20260901164323 | 87 | 68 | 4.0 | 7.0 | 0.00 | 0.00 | 0.00 | 68 | 1019.4 |
| 20260901163321 | 88 | 66 | 5.0 | 11.0 | 0.00 | 0.00 | 0.00 | 67 | 1019.5 |
| 20260901162819 | 88 | 37 | 5.0 | 11.0 | 0.00 | 0.00 | 0.00 | 68 | 1019.6 |
| 20260901162316 | 88 | 6 | 4.0 | 11.0 | 0.00 | 0.00 | 0.00 | 67 | 1019.5 |
| 20260901161817 | 87 | 48 | 4.0 | 11.0 | 0.00 | 0.00 | 0.00 | 70 | 1019.6 |
| 20260901161317 | 88 | 48 | 4.0 | 11.0 | 0.00 | 0.00 | 0.00 | 68 | 1019.7 |
| 20260901160820 | 88 | 37 | 3.0 | 10.0 | 0.00 | 0.00 | 0.00 | 68 | 1019.8 |
| 20260901160319 | 87 | 25 | 4.0 | 9.0 | 0.00 | 0.00 | 0.00 | 70 | 1019.8 |
| 20260901155817 | 88 | 356 | 4.0 | 9.0 | 0.00 | 0.00 | 0.00 | 72 | 1019.8 |
| 20260901155317 | 87 | 50 | 3.0 | 8.0 | 0.00 | 0.00 | 0.00 | 72 | 1019.7 |
| 20260901154315 | 87 | 56 | 5.0 | 10.0 | 0.00 | 0.00 | 0.00 | 72 | 1019.9 |
| 20260901153813 | 87 | 62 | 4.0 | 10.0 | 0.00 | 0.00 | 0.00 | 75 | 1019.8 |
| 20260901153315 | 86 | 28 | 4.0 | 9.0 | 0.00 | 0.00 | 0.00 | 74 | 1019.8 |
| 20260901152813 | 86 | 2 | 5.0 | 10.0 | 0.00 | 0.00 | 0.00 | 74 | 1019.9 |
| 20260901152312 | 85 | 19 | 5.0 | 10.0 | 0.00 | 0.00 | 0.00 | 73 | 1020.0 |
| 20260901151807 | 86 | 45 | 5.0 | 10.0 | 0.00 | 0.00 | 0.00 | 75 | 1020.0 |
| 20260901151307 | 85 | 52 | 4.0 | 10.0 | 0.00 | 0.00 | 0.00 | 76 | 1020.1 |
| 20260901150803 | 85 | 15 | 4.0 | 8.0 | 0.00 | 0.00 | 0.00 | 78 | 1020.0 |
| 20260901150302 | 85 | 338 | 4.0 | 8.0 | 0.00 | 0.00 | 0.00 | 78 | 1020.1 |
| 20260901145306 | 84 | 73 | 4.0 | 10.0 | 0.00 | 0.00 | 0.00 | 78 | 1020.1 |
| 20260901144802 | 84 | 28 | 4.0 | 9.0 | 0.00 | 0.00 | 0.00 | 80 | 1020.0 |
| 20260901144302 | 84 | 33 | 5.0 | 10.0 | 0.00 | 0.00 | 0.00 | 80 | 1020.1 |
| 20260901143801 | 84 | 40 | 5.0 | 10.0 | 0.00 | 0.00 | 0.00 | 79 | 1020.1 |
| 20260901142801 | 83 | 346 | 4.0 | 11.0 | 0.00 | 0.00 | 0.00 | 82 | 1020.0 |
| 20260901142301 | 83 | 346 | 4.0 | 9.0 | 0.00 | 0.00 | 0.00 | 84 | 1019.7 |
| 20260901141802 | 82 | 346 | 5.0 | 9.0 | 0.00 | 0.00 | 0.00 | 85 | 1019.7 |
| 20260901141301 | 81 | 29 | 4.0 | 8.0 | 0.00 | 0.00 | 0.00 | 87 | 1019.7 |
| 20260901140805 | 81 | 20 | 4.0 | 8.0 | 0.00 | 0.00 | 0.00 | 87 | 1019.7 |
| 20260901140306 | 81 | 13 | 5.0 | 8.0 | 0.00 | 0.00 | 0.00 | 88 | 1019.7 |
| 20260901134759 | 81 | 34 | 3.0 | 6.0 | 0.00 | 0.00 | 0.00 | 90 | 1019.9 |
| 20260901134255 | 80 | 39 | 3.0 | 5.0 | 0.00 | 0.00 | 0.00 | 92 | 1019.8 |
| 20260901133755 | 80 | 41 | 3.0 | 6.0 | 0.00 | 0.00 | 0.00 | 92 | 1019.8 |
| 20260901133255 | 80 | 35 | 3.0 | 7.0 | 0.00 | 0.00 | 0.00 | 94 | 1019.7 |
| 20260901132756 | 79 | 29 | 3.0 | 7.0 | 0.00 | 0.00 | 0.00 | 94 | 1019.7 |
| 20260901131755 | 78 | 45 | 2.0 | 5.0 | 0.00 | 0.00 | 0.00 | 96 | 1019.6 |
| 20260901131258 | 78 | 45 | 2.0 | 4.0 | 0.00 | 0.00 | 0.00 | 96 | 1019.6 |
| 20260901130253 | 77 | 45 | 2.0 | 4.0 | 0.00 | 0.00 | 0.00 | 96 | 1019.6 |
| 20260901125754 | 77 | 153 | 1.0 | 3.0 | 0.00 | 0.00 | 0.00 | 96 | 1019.6 |
| 20260901125251 | 77 | 189 | 1.0 | 3.0 | 0.00 | 0.00 | 0.00 | 96 | 1019.6 |
| 20260901124749 | 77 | 189 | 1.0 | 3.0 | 0.00 | 0.00 | 0.00 | 96 | 1019.6 |
| 20260901124247 | 77 | 189 | 1.0 | 3.0 | 0.00 | 0.00 | 0.00 | 96 | 1019.6 |
| 20260901123749 | 76 | 189 | 1.0 | 3.0 | 0.00 | 0.00 | 0.00 | 97 | 1019.6 |
| 20260901123251 | 76 | 189 | 1.0 | 3.0 | 0.00 | 0.00 | 0.00 | 96 | 1019.6 |
| 20260901122747 | 76 | 189 | 1.0 | 3.0 | 0.00 | 0.00 | 0.00 | 96 | 1019.6 |
| 20260901122247 | 76 | 189 | 1.0 | 3.0 | 0.00 | 0.00 | 0.00 | 96 | 1019.6 |
| 20260901121749 | 75 | 189 | 1.0 | 3.0 | 0.00 | 0.00 | 0.00 | 96 | 1019.6 |
| 20260901121247 | 75 | 189 | 1.0 | 3.0 | 0.00 | 0.00 | 0.00 | 96 | 1019.6 |
| 20260901120749 | 75 | 189 | 1.0 | 3.0 | 0.00 | 0.00 | 0.00 | 96 | 1019.4 |
| 20260901115738 | 74 | 189 | 0.0 | 0.0 | 0.00 | 0.00 | 0.00 | 96 | 1019.3 |
| 20260901115234 | 74 | 189 | 0.0 | 0.0 | 0.00 | 0.00 | 0.00 | 96 | 1019.2 |
| 20260901114735 | 74 | 189 | 0.0 | 0.0 | 0.00 | 0.00 | 0.00 | 96 | 1019.2 |
| 20260901114235 | 74 | 189 | 0.0 | 0.0 | 0.00 | 0.00 | 0.00 | 96 | 1019.1 |
| 20260901113736 | 73 | 189 | 0.0 | 0.0 | 0.00 | 0.00 | 0.00 | 96 | 1019.0 |
| 20260901113236 | 73 | 189 | 0.0 | 0.0 | 0.00 | 0.00 | 0.00 | 96 | 1019.0 |
| 20260901112735 | 73 | 189 | 0.0 | 0.0 | 0.00 | 0.00 | 0.00 | 96 | 1018.9 |
| 20260901112239 | 73 | 189 | 0.0 | 0.0 | 0.00 | 0.00 | 0.00 | 96 | 1018.8 |
| 20260901111735 | 73 | 189 | 0.0 | 0.0 | 0.00 | 0.00 | 0.00 | 96 | 1018.8 |
| 20260901111235 | 73 | 189 | 0.0 | 0.0 | 0.00 | 0.00 | 0.00 | 96 | 1018.8 |
| 20260901110734 | 73 | 189 | 0.0 | 0.0 | 0.00 | 0.00 | 0.00 | 96 | 1018.7 |
| 20260901110235 | 73 | 189 | 0.0 | 0.0 | 0.00 | 0.00 | 0.00 | 96 | 1018.5 |
| 20260901105236 | 73 | 189 | 0.0 | 0.0 | 0.00 | 0.00 | 0.00 | 96 | 1018.5 |
| 20260901104734 | 73 | 189 | 0.0 | 0.0 | 0.00 | 0.00 | 0.00 | 96 | 1018.5 |
| 20260901104235 | 73 | 189 | 0.0 | 0.0 | 0.00 | 0.00 | 0.00 | 96 | 1018.4 |
| 20260901103734 | 73 | 189 | 0.0 | 0.0 | 0.00 | 0.00 | 0.00 | 96 | 1018.5 |
| 20260901103234 | 73 | 189 | 0.0 | 0.0 | 0.00 | 0.00 | 0.00 | 96 | 1018.5 |
| 20260901102734 | 73 | 189 | 0.0 | 0.0 | 0.00 | 0.00 | 0.00 | 96 | 1018.3 |
| 20260901102236 | 73 | 189 | 0.0 | 0.0 | 0.00 | 0.00 | 0.00 | 95 | 1018.3 |
| 20260901101735 | 73 | 189 | 0.0 | 0.0 | 0.00 | 0.00 | 0.00 | 95 | 1018.4 |
| 20260901101235 | 73 | 189 | 0.0 | 0.0 | 0.00 | 0.00 | 0.00 | 95 | 1018.3 |
| 20260901100738 | 74 | 189 | 0.0 | 0.0 | 0.00 | 0.00 | 0.00 | 95 | 1018.3 |
| 20260901100234 | 74 | 189 | 0.0 | 0.0 | 0.00 | 0.00 | 0.00 | 95 | 1018.2 |
| 20260901095732 | 74 | 189 | 0.0 | 0.0 | 0.00 | 0.00 | 0.00 | 95 | 1018.2 |
| 20260901095229 | 74 | 189 | 0.0 | 0.0 | 0.00 | 0.00 | 0.00 | 95 | 1018.2 |
| 20260901094727 | 74 | 189 | 0.0 | 0.0 | 0.00 | 0.00 | 0.00 | 95 | 1018.2 |
| 20260901094219 | 74 | 189 | 0.0 | 0.0 | 0.00 | 0.00 | 0.00 | 95 | 1018.1 |
| 20260901093714 | 74 | 189 | 0.0 | 0.0 | 0.00 | 0.00 | 0.00 | 95 | 1018.2 |
| 20260901093221 | 74 | 189 | 0.0 | 0.0 | 0.00 | 0.00 | 0.00 | 95 | 1018.2 |
| 20260901092710 | 74 | 189 | 0.0 | 0.0 | 0.00 | 0.00 | 0.00 | 95 | 1018.2 |
| 20260901091707 | 74 | 189 | 0.0 | 0.0 | 0.00 | 0.00 | 0.00 | 96 | 1018.2 |
| 20260901091202 | 73 | 189 | 0.0 | 0.0 | 0.00 | 0.00 | 0.00 | 95 | 1018.2 |
| 20260901090707 | 74 | 189 | 0.0 | 0.0 | 0.00 | 0.00 | 0.00 | 95 | 1018.1 |
| 20260901090204 | 74 | 189 | 0.0 | 0.0 | 0.00 | 0.00 | 0.00 | 95 | 1018.2 |
| 20260901085703 | 73 | 189 | 0.0 | 0.0 | 0.00 | 0.00 | 0.00 | 95 | 1018.2 |
| 20260901084205 | 74 | 189 | 0.0 | 0.0 | 0.00 | 0.00 | 0.00 | 95 | 1018.1 |
| 20260901083710 | 74 | 189 | 0.0 | 0.0 | 0.00 | 0.00 | 0.00 | 95 | 1018.2 |
| 20260901082706 | 74 | 189 | 0.0 | 0.0 | 0.00 | 0.00 | 0.00 | 95 | 1018.3 |
| 20260901082207 | 74 | 189 | 0.0 | 0.0 | 0.00 | 0.00 | 0.00 | 95 | 1018.3 |
| 20260901081704 | 74 | 189 | 0.0 | 0.0 | 0.00 | 0.00 | 0.00 | 95 | 1018.2 |
| 20260901081203 | 74 | 189 | 0.0 | 0.0 | 0.00 | 0.00 | 0.00 | 95 | 1018.2 |
| 20260901080702 | 74 | 189 | 0.0 | 0.0 | 0.00 | 0.00 | 0.00 | 95 | 1018.1 |
| 20260901080159 | 74 | 189 | 0.0 | 0.0 | 0.00 | 0.00 | 0.00 | 95 | 1018.1 |
| 20260901075200 | 74 | 189 | 0.0 | 0.0 | 0.00 | 0.00 | 0.00 | 95 | 1018.1 |
| 20260901074707 | 74 | 189 | 0.0 | 0.0 | 0.00 | 0.00 | 0.00 | 95 | 1018.1 |
| 20260901073655 | 74 | 189 | 0.0 | 0.0 | 0.00 | 0.00 | 0.00 | 95 | 1018.2 |
| 20260901073157 | 74 | 189 | 0.0 | 0.0 | 0.00 | 0.00 | 0.00 | 95 | 1018.3 |
| 20260901072654 | 74 | 189 | 0.0 | 0.0 | 0.00 | 0.00 | 0.00 | 94 | 1018.3 |
| 20260901072156 | 74 | 189 | 0.0 | 0.0 | 0.00 | 0.01 | 0.00 | 94 | 1018.2 |
| 20260901071655 | 74 | 189 | 0.0 | 0.0 | 0.00 | 0.01 | 0.00 | 94 | 1018.2 |
| 20260901071156 | 74 | 189 | 0.0 | 0.0 | 0.00 | 0.01 | 0.00 | 94 | 1018.1 |
| 20260901070651 | 74 | 189 | 0.0 | 0.0 | 0.00 | 0.01 | 0.00 | 94 | 1018.1 |
| 20260901070150 | 74 | 189 | 0.0 | 0.0 | 0.00 | 0.01 | 0.00 | 94 | 1018.2 |
| 20260901065649 | 74 | 189 | 0.0 | 0.0 | 0.00 | 0.01 | 0.00 | 94 | 1018.3 |
| 20260901065140 | 74 | 189 | 0.0 | 0.0 | 0.00 | 0.01 | 0.00 | 94 | 1018.4 |
| 20260901063638 | 75 | 189 | 0.0 | 0.0 | 0.00 | 0.01 | 0.00 | 94 | 1018.4 |
| 20260901063136 | 75 | 189 | 0.0 | 0.0 | 0.00 | 0.01 | 0.00 | 94 | 1018.4 |
| 20260901062135 | 75 | 189 | 0.0 | 0.0 | 0.00 | 0.01 | 0.00 | 94 | 1018.4 |
| 20260901061633 | 75 | 189 | 0.0 | 0.0 | 0.00 | 0.01 | 0.00 | 94 | 1018.4 |
| 20260901061141 | 75 | 189 | 0.0 | 0.0 | 0.00 | 0.01 | 0.00 | 94 | 1018.4 |
| 20260901060639 | 75 | 189 | 0.0 | 0.0 | 0.00 | 0.01 | 0.00 | 94 | 1018.5 |
| 20260901054627 | 75 | 189 | 0.0 | 0.0 | 0.00 | 0.01 | 0.00 | 94 | 1018.7 |
| 20260901054124 | 75 | 189 | 0.0 | 0.0 | 0.00 | 0.01 | 0.00 | 94 | 1018.8 |
| 20260901053622 | 75 | 189 | 0.0 | 0.0 | 0.00 | 0.01 | 0.00 | 93 | 1018.9 |
| 20260901053120 | 76 | 189 | 0.0 | 0.0 | 0.00 | 0.01 | 0.00 | 93 | 1018.9 |
| 20260901052618 | 76 | 189 | 0.0 | 0.0 | 0.00 | 0.01 | 0.00 | 93 | 1019.0 |
| 20260901052116 | 76 | 189 | 0.0 | 0.0 | 0.00 | 0.01 | 0.00 | 93 | 1019.0 |
| 20260901051616 | 76 | 189 | 0.0 | 0.0 | 0.00 | 0.01 | 0.00 | 93 | 1019.1 |
| 20260901051117 | 76 | 189 | 0.0 | 0.0 | 0.00 | 0.01 | 0.00 | 93 | 1019.1 |
| 20260901050614 | 76 | 189 | 0.0 | 0.0 | 0.00 | 0.01 | 0.00 | 93 | 1019.1 |
| 20260901050113 | 76 | 189 | 0.0 | 0.0 | 0.00 | 0.01 | 0.00 | 93 | 1019.1 |
| 20260901045612 | 76 | 189 | 0.0 | 0.0 | 0.00 | 0.01 | 0.00 | 93 | 1019.1 |
| 20260901045108 | 76 | 189 | 0.0 | 0.0 | 0.00 | 0.01 | 0.00 | 93 | 1019.1 |
| 20260901043607 | 77 | 189 | 0.0 | 0.0 | 0.00 | 0.01 | 0.00 | 93 | 1019.2 |
| 20260901042608 | 77 | 189 | 0.0 | 0.0 | 0.00 | 0.01 | 0.00 | 92 | 1019.2 |
| 20260901042100 | 77 | 189 | 0.0 | 0.0 | 0.00 | 0.01 | 0.00 | 92 | 1019.2 |
| 20260901041554 | 77 | 189 | 0.0 | 0.0 | 0.00 | 0.01 | 0.00 | 92 | 1019.3 |
| 20260901041049 | 77 | 189 | 0.0 | 0.0 | 0.00 | 0.01 | 0.00 | 92 | 1019.3 |
| 20260901040548 | 77 | 189 | 0.0 | 0.0 | 0.00 | 0.01 | 0.00 | 91 | 1019.3 |
| 20260901040045 | 78 | 189 | 0.0 | 0.0 | 0.00 | 0.01 | 0.00 | 91 | 1019.3 |
| 20260901035545 | 78 | 189 | 0.0 | 0.0 | 0.00 | 0.01 | 0.01 | 91 | 1019.3 |
| 20260901034545 | 78 | 189 | 0.0 | 0.0 | 0.00 | 0.01 | 0.01 | 91 | 1019.3 |
| 20260901034046 | 78 | 189 | 0.0 | 0.0 | 0.00 | 0.01 | 0.01 | 91 | 1019.3 |
| 20260901033540 | 78 | 189 | 0.0 | 0.0 | 0.00 | 0.01 | 0.01 | 91 | 1019.3 |
| 20260901033039 | 78 | 189 | 0.0 | 0.0 | 0.00 | 0.01 | 0.01 | 90 | 1019.2 |
| 20260901032541 | 78 | 189 | 0.0 | 0.0 | 0.00 | 0.01 | 0.01 | 90 | 1019.3 |
| 20260901032038 | 78 | 189 | 0.0 | 0.0 | 0.00 | 0.01 | 0.01 | 90 | 1019.3 |